Weather History for Hereford, TX

Change the Weather History Date:

Sunday, January 6, 2013

  Actual Average (KAMA) Record (KAMA)
Temperature  
Mean Temperature 31 °F 36 °F  
Max Temperature 48 °F 50 °F 75 °F (1927)
Min Temperature 14 °F 23 °F -11 °F (1912)
Degree Days  
Heating Degree Days 34 29  
Month to date heating degree days 174  
Since 1 July heating degree days 1891  
Cooling Degree Days 0 0  
Month to date cooling degree days 0  
Year to date cooling degree days 0  
Moisture  
Dew Point 18 °F    
Average Humidity 65    
Maximum Humidity 86    
Minimum Humidity 32    
Precipitation  
Precipitation 0.00 in 0.02 in 0.49 in (1935)
Month to date precipitation 0.12  
Year to date precipitation 0.12  
Snow  
Snow 0.00 in 0.20 in 2.20 in (1988)
Month to date snowfall 0.7  
Since 1 July snowfall 7.1  
Snow Depth -    
Sea Level Pressure  
Sea Level Pressure 30.33 in    
Wind  
Wind Speed - (North)    
Max Wind Speed -    
Max Gust Speed -    
Visibility 10 miles    
Events      
T = Trace of Precipitation, MM = Missing Value Source: NWS Daily Summary

Daily Weather History Graph

Daily Weather History Graph

Search for Another Location

Airport:

Trip Planner

Search our weather history database for the weather conditions in past years. The results will help you decide how hot, cold, wet, or windy it might be!

Date:

Astronomy

Jan. 06, 2013 Rise Set
Actual Time 7:57 AM CST 5:53 PM CST
Civil Twilight 7:29 AM CST 6:21 PM CST
Nautical Twilight 6:58 AM CST 6:52 PM CST
Astronomical Twilight 6:27 AM CST 7:23 PM CST
Moon 2:19 AM CST (1/6) 1:17 PM CST (1/6)
Length of Visible Light 10h 51m
Length of Day
9h 55m
Waning Crescent, 33% of the Moon is Illuminated
Jan 6
Waning Crescent
Jan 11
New
Jan 18
First Quarter
Jan 26
Full
Feb 3
Last Quarter

Hourly Weather History & Observations

Time (CST) Temp. Dew Point Humidity Pressure Visibility Wind Dir Wind Speed Gust Speed Precip Events Conditions
12:15 AM 21.2 °F 17.6 °F 86% 30.38 in 10.0 mi North - - N/A   Clear
12:35 AM 21.2 °F 17.6 °F 86% 30.38 in 10.0 mi North - - N/A   Clear
12:55 AM 21.2 °F 17.6 °F 86% 30.38 in 10.0 mi North - - N/A   Clear
1:15 AM 21.2 °F 17.6 °F 86% 30.37 in 10.0 mi North - - N/A   Clear
1:35 AM 21.2 °F 15.8 °F 80% 30.37 in 10.0 mi North - - N/A   Clear
1:55 AM 19.4 °F 15.8 °F 86% 30.37 in 10.0 mi North - - N/A   Clear
2:15 AM 19.4 °F 15.8 °F 86% 30.37 in 10.0 mi North - - N/A   Clear
2:35 AM 19.4 °F 15.8 °F 86% 30.37 in 10.0 mi North - - N/A   Clear
2:55 AM 19.4 °F 15.8 °F 86% 30.38 in 10.0 mi North - - N/A   Clear
3:15 AM 17.6 °F 14.0 °F 86% 30.37 in 10.0 mi North - - N/A   Clear
3:35 AM 19.4 °F 14.0 °F 80% 30.37 in 10.0 mi North - - N/A   Clear
3:55 AM 17.6 °F 14.0 °F 86% 30.37 in 10.0 mi North - - N/A   Clear
4:15 AM 19.4 °F 14.0 °F 80% 30.37 in 10.0 mi North - - N/A   Clear
4:35 AM 17.6 °F 14.0 °F 86% 30.37 in 10.0 mi North - - N/A   Clear
4:55 AM 17.6 °F 14.0 °F 86% 30.37 in 10.0 mi North - - N/A   Clear
5:15 AM 17.6 °F 12.2 °F 79% 30.37 in 10.0 mi North - - N/A   Clear
5:35 AM 17.6 °F 14.0 °F 86% 30.37 in 10.0 mi North - - N/A   Clear
5:55 AM 17.6 °F 14.0 °F 86% 30.37 in 10.0 mi North - - N/A   Clear
6:15 AM 15.8 °F 12.2 °F 86% 30.37 in 10.0 mi North - - N/A   Clear
6:35 AM 17.6 °F 12.2 °F 79% 30.37 in 10.0 mi North - - N/A   Clear
6:55 AM 15.8 °F 12.2 °F 86% 30.37 in 10.0 mi North - - N/A   Clear
7:15 AM 17.6 °F 12.2 °F 79% 30.38 in 10.0 mi North - - N/A   Clear
7:35 AM 15.8 °F 12.2 °F 86% 30.39 in 10.0 mi North - - N/A   Clear
7:55 AM 14.0 °F 10.4 °F 86% 30.39 in 10.0 mi North - - N/A   Clear
8:15 AM 15.8 °F 12.2 °F 86% 30.39 in 10.0 mi North - - N/A   Clear
8:35 AM 19.4 °F 14.0 °F 80% 30.40 in 10.0 mi North - - N/A   Clear
8:55 AM 21.2 °F 17.6 °F 86% 30.40 in 10.0 mi North - - N/A   Clear
9:15 AM 23.0 °F 19.4 °F 86% 30.40 in 10.0 mi North - - N/A   Clear
9:35 AM 26.6 °F 21.2 °F 80% 30.41 in 10.0 mi North - - N/A   Clear
9:55 AM 30.2 °F 23.0 °F 75% 30.42 in 10.0 mi North - - N/A   Clear
10:15 AM 32.0 °F 24.8 °F 75% 30.42 in 10.0 mi North - - N/A   Clear
10:35 AM 35.6 °F 23.0 °F 60% 30.42 in 10.0 mi North - - N/A   Clear
10:55 AM 37.4 °F 23.0 °F 56% 30.42 in 10.0 mi North - - N/A   Clear
11:15 AM 41.0 °F 23.0 °F 49% 30.42 in 10.0 mi North - - N/A   Clear
11:35 AM 41.0 °F 23.0 °F 49% 30.41 in 10.0 mi North - - N/A   Clear
11:55 AM 42.8 °F 23.0 °F 46% 30.40 in 10.0 mi North - - N/A   Clear
12:15 PM 42.8 °F 24.8 °F 49% 30.38 in 10.0 mi North - - N/A   Clear
12:35 PM 44.6 °F 21.2 °F 39% 30.37 in 10.0 mi North - - N/A   Clear
12:55 PM 44.6 °F 21.2 °F 39% 30.35 in 10.0 mi North - - N/A   Clear
1:15 PM 46.4 °F 21.2 °F 37% 30.33 in 10.0 mi North - - N/A   Clear
1:35 PM 46.4 °F 21.2 °F 37% 30.32 in 10.0 mi North - - N/A   Clear
1:55 PM 48.2 °F 21.2 °F 34% 30.31 in 10.0 mi North - - N/A   Clear
2:15 PM 46.4 °F 19.4 °F 34% 30.31 in 10.0 mi North - - N/A   Clear
2:35 PM 48.2 °F 19.4 °F 32% 30.29 in 10.0 mi North - - N/A   Clear
2:55 PM 48.2 °F 19.4 °F 32% 30.29 in 10.0 mi North - - N/A   Clear
3:15 PM 48.2 °F 21.2 °F 34% 30.28 in 10.0 mi North - - N/A   Clear
3:35 PM 48.2 °F 21.2 °F 34% 30.28 in 10.0 mi North - - N/A   Clear
3:55 PM 48.2 °F 21.2 °F 34% 30.27 in 10.0 mi North - - N/A   Clear
4:35 PM 48.2 °F 19.4 °F 32% 30.27 in 10.0 mi North - - N/A   Clear
4:55 PM 46.4 °F 19.4 °F 34% 30.26 in 10.0 mi North - - N/A   Clear
5:15 PM 46.4 °F 19.4 °F 34% 30.26 in 10.0 mi North - - N/A   Clear
5:35 PM 42.8 °F 21.2 °F 42% 30.26 in 10.0 mi North - - N/A   Clear
5:55 PM 39.2 °F 19.4 °F 45% 30.26 in 10.0 mi North - - N/A   Clear
6:15 PM 35.6 °F 21.2 °F 56% 30.26 in 10.0 mi North - - N/A   Clear
6:35 PM 33.8 °F 21.2 °F 60% 30.26 in 10.0 mi North - - N/A   Clear
6:55 PM 33.8 °F 21.2 °F 60% 30.25 in 10.0 mi North - - N/A   Clear
7:15 PM 32.0 °F 19.4 °F 60% 30.26 in 10.0 mi North - - N/A   Clear
7:35 PM 32.0 °F 19.4 °F 60% 30.26 in 10.0 mi North - - N/A   Clear
7:55 PM 32.0 °F 19.4 °F 60% 30.26 in 10.0 mi North - - N/A   Clear
8:15 PM 30.2 °F 19.4 °F 64% 30.26 in 10.0 mi North - - N/A   Clear
8:35 PM 32.0 °F 21.2 °F 64% 30.26 in 10.0 mi North - - N/A   Clear
8:55 PM 30.2 °F 19.4 °F 64% 30.26 in 10.0 mi North - - N/A   Clear
9:15 PM 30.2 °F 19.4 °F 64% 30.24 in 10.0 mi North - - N/A   Clear
9:55 PM 30.2 °F 19.4 °F 64% 30.24 in 10.0 mi North - - N/A   Clear
10:15 PM 30.2 °F 21.2 °F 69% 30.23 in 10.0 mi North - - N/A   Clear
10:35 PM 30.2 °F 21.2 °F 69% 30.23 in 10.0 mi North - - N/A   Clear
10:55 PM 30.2 °F 21.2 °F 69% 30.22 in 10.0 mi North - - N/A   Clear
11:35 PM 30.2 °F 21.2 °F 69% 30.22 in 10.0 mi North - - N/A   Clear
11:55 PM 30.2 °F 21.2 °F 69% 30.22 in 10.0 mi North - - N/A   Clear